Location: ????????
(55.6189°N, 38.3031°E)
Time: 08:05:54
(UTC+00:00)

PSLV R/B - Pass Details

Date: 15 November 2019
Orbit: 505 x 579 km, 97.8° (Epoch: 10 December)

Event Time Altitude Azimuth Distance (km) Brightness Sun altitude
Rises 03:15:39 0° 11° (N) 2,654 7.3 -14.5°
Reaches altitude 10° 03:17:47 10° 6° (N) 1,771 6.3 -14.2°
Maximum altitude 03:21:28 48° 292° (WNW) 699 3.9 -13.7°
Drops below altitude 10° 03:25:12 10° 217° (SW) 1,797 6.2 -13.2°
Sets 03:27:22 0° 212° (SSW) 2,697 7.2 -12.9°
